Regional Weather Roundup
Issued by NWS Charleston, WV

Home | Current Version | Previous Version | Text Only | Print | Product List | Glossary Off
Versions: 1 2 3 4 5 6 7 8 9 10 11 12 13 14 15 16 17 18 19 20 21 22 23 24 25 26 27 28 29 30 31 32 33 34 35 36 37 38 39 40 41 42 43 44 45 46 47 48 49 50

000
ASUS41 KRLX 010710
RWRRLX
West Virginia Regional Weather Roundup
National Weather Service Charleston WV
200 AM EST SUN MAR 01 2015

Note: "fair" indicates few or no clouds below 12,000 feet with no
significant weather and/or obstructions to visibility.

WVZ003-010800-
Northern Panhandle of West Virginia

CITY           SKY/WX    TMP DP  RH WIND       PRES   REMARKS
WHEELING       CLOUDY    24   5  44 CALM      30.48S
$$

WVZ009-010800-
Northwest West Virginia

CITY           SKY/WX    TMP DP  RH WIND       PRES   REMARKS
PARKERSBURG    CLOUDY    30  11  45 NE3       30.50F
$$

WVZ006-010800-
Western West Virginia

CITY           SKY/WX    TMP DP  RH WIND       PRES   REMARKS
HUNTINGTON     CLOUDY    31  14  49 NE5       30.45R
$$

WVZ015-010800-
West Central West Virginia

CITY           SKY/WX    TMP DP  RH WIND       PRES   REMARKS
CHARLESTON     CLOUDY    30  22  72 CALM      30.44F
$$

WVZ022-031-010800-
North Central West Virginia

CITY           SKY/WX    TMP DP  RH WIND       PRES   REMARKS
CLARKSBURG     CLOUDY    28  16  60 N5        30.46S
MORGANTOWN     CLOUDY    28  11  48 CALM      30.49R
$$

WVZ025-035-042-045-010800-
Southern West Virginia

CITY           SKY/WX    TMP DP  RH WIND       PRES   REMARKS
BECKLEY        CLOUDY    29  16  58 S7G20     30.43F
LOGAN          CLOUDY    37  21  52 VRB5G13   30.38F
BLUEFIELD      CLOUDY    32  17  54 S6        30.45S
LEWISBURG      CLOUDY    25  15  65 N7        30.52S
$$

WVZ047-010800-
Northern Mountains of West Virginia

CITY           SKY/WX    TMP DP  RH WIND       PRES   REMARKS
ELKINS         CLOUDY    27  18  69 S3        30.47S
$$

WVZ052-010800-
Eastern Panhandle of West Virginia

CITY           SKY/WX    TMP DP  RH WIND       PRES   REMARKS
MARTINSBURG    CLOUDY    22  11  62 CALM      30.65F
PETERSBURG     CLOUDY    23  14  69 CALM      30.60F
$$


USA.gov is the U.S. government's official web portal to all federal, state and local government web resources and services.